Showing default

ROBUSTA-3A, 60243

Orbit data source: Space-Track

ROBUSTA-3A, 60243 is a payload satellite owned by Montpellier (FR) in LEO that was launched on Tue, 09 Jul 2024 UTC via an ARIANE 62 launch vehicle from the French Guiana (FRGUI). Payload-class satellites include a variety of spacecraft equipped with specific instruments for various scientific and technological missions. These include communications satellites like Starlink; space stations such as the ISS; scientific satellites like the Hubble; Earth observation satellites from companies like Planet Labs, Umbra, and HawkEye 360; GPS; miniature CubeSats for education and research; and military/defense satellites.

Loading next visibility...
Identifier
60243, 2024-128J
Orbit
LEO
Last TLE update
1 day ago
Origin
Manufacturer
Montpellier
Mission
Operational Amateur Technology
Bus & Motor
CUBESAT 3U, Unknown motor
Mass
5 kg wet, 5 kg dry
Launch date (UTC)
2024-07-09 (10 months ago)
Launch vehicle
ARIANE 62
Launch site
French Guiana (FRGUI)
Object type
Payload
Rocket body
Debris
Shape & HBR
Box + 4 Pan, 0.7 m
Radar Cross Section
0.072 m², Small (<0.1 m²)

Expand to show TLE details & history

TLE from 1 day ago
0 ROBUSTA-3A
1 60243U 24128J   25114.51070827  .00012895  00000-0  92303-3 0  9990
2 60243  61.9889 239.7370 0046213  40.7671 319.6863 15.03887631 43296
Epoch: 2025-04-24T12:15Z
Definitive object data (Epoch: 2025-04-24T12:15:25.194Z)
Latitude
-0.00003°
Longitude
-156.89909°
Altitude
532.323 km
Speed
7.611 km/s
True Right ascension
15h 58m 56s
True Declination
0° 00' 00"
Sunlit
Object was in full shadow at TLE epoch
Visualization TLE readout
Latitude
-40.70151°
Longitude
171.88126°
Altitude
568.206 km
Speed
7.577 km/s
Apparent Right ascension
12h 59m 56s
Apparent Declination
-41° 00' 13"
Sunlit
Object is in full shadow
Visualization observer readout
Local Sidereal Time
00:01:35
Azimuth
259.685° W
Elevation
-78.86°
Doppler factor
1
Orbital elements
Apogee altitude
585.887 km
Perigee altitude
521.817 km
Semi-major axis
6,931.989 km
Eccentricity
0.0046213
Inclination
61.9889°
RAAN
239.737°
Arg. of periapsis
40.7671°
True anomaly
319.34217°
Mean anomaly
319.6863°
Eccentric anomaly
319.51439°
Mean motion
3.76059 °/min
BSTAR
0.00092303
Orbital period
95.73 mins
Loading maneuver chart data...
Loading SW <> Apogee altitude chart data...
Loading historical data...
Loading historical data...
Loading historical data...
Loading historical data...
Loading historical data...
Loading historical data...
Loading historical data...

ROBUSTA-3A Visibility forecast

Observer location: undefined°, undefined°

Span
Click to sort rows by Start time (UTC) header in descending order
Start Az.
Max El. time (UTC)
Max El. Az.
Max El.
End time (UTC)
End Az.
5 mins2025-04-25 17:29:14.973Z359.082° N2025-04-25 17:31:14.973Z32.997° NE19.7°2025-04-25 17:34:14.973Z87.172° E
6 mins2025-04-25 19:08:14.973Z300.467° NW2025-04-25 19:10:14.973Z255.721° W33.312°2025-04-25 19:14:14.973Z169.892° S
5 mins2025-04-26 09:05:14.973Z156.031° SSE2025-04-26 09:07:14.973Z113.543° SE21.849°2025-04-26 09:10:14.973Z63.138° ENE
4 mins2025-04-26 10:44:14.973Z273.796° WNW2025-04-26 10:45:14.973Z298.18° NW26.236°2025-04-26 10:48:14.973Z7.999° NNE
|